Notices

What's New in latest Release from April 7th, 2021:

- Updated Glossary, including Speed of Maximum Gust, and Total Hourly Precipitation

- Updated national and regional climate services offices contacts and prices information

- Addition of station inventory lists for 1981-2010, 1971-2000, and 1961-1990 Normals.

If you haven't already, please take our survey and provide feedback about our website: https://eccc.sondage-survey.ca/f/LanguageSelection.aspx?s=442ca660-fcf1-47c0-95a9-59707d6fd709

Hourly Data Report for March 01, 2010

HALIFAX STANFIELD INT'L A
NOVA SCOTIA

44°52'48.060" N
63°30'00.050" W
145.40 m
8202250
71395
YHZ

Download Data

Hourly Data (March 2010)
Hourly Data Report for March 1, 2010
TIME
LST
Temp Definition
°C
Dew Point Definition
°C
Rel Hum Definition
%
Precip. Amount Definition
mm

Wind Dir Definition
10's deg

Wind Spd Definition
km/h
Visibility Definition
km
Stn Press Definition
kPa
Hmdx Definition


Wind Chill Definition


Weather Definition


00:00 3.5 2.6 94   5 33 12.9 97.50     Cloudy
01:00 3.8 2.8 93   5 48 12.9 97.25     Cloudy
02:00 3.6 2.4 92   4 44 12.9 97.03     Rain
03:00 3.7 2.7 93   4 46 16.1 96.93     Rain
04:00 3.2 2.4 94   4 39 16.1 96.83     Rain
05:00 2.8 2.0 94   5 37 16.1 96.83     Rain
06:00 2.6 1.7 94   5 39 16.1 96.82     Rain
07:00 2.5 1.8 95   5 33 2.4 96.87     Rain,Fog
08:00 2.2 1.6 96   5 35 2.4 96.94     Drizzle,Fog
09:00 2.4 1.9 96   5 32 2.4 96.97     Rain,Fog
10:00 2.9 2.4 97   5 28 4.0 97.04     Fog
11:00 4.1 3.8 98   5 26 6.4 97.06     Fog
12:00 5.3 4.8 97   1 19 9.7 97.10     Fog
13:00 5.5 4.4 93   3 22 24.1 97.11     Cloudy
14:00 5.5 4.0 90   3 17 24.1 97.13     Cloudy
15:00 6.2 4.2 87   2 24 24.1 97.17     Mostly Cloudy
16:00 4.9 3.4 90   2 22 24.1 97.23     Mostly Cloudy
17:00 3.9 2.6 91   1 26 24.1 97.31     Mostly Cloudy
18:00 3.3 2.1 92   1 26 24.1 97.42     Mostly Cloudy
19:00 2.6 1.8 94   1 30 19.3 97.53     Cloudy
20:00 2.4 1.4 93   36 26 19.3 97.61     Cloudy
21:00 1.8 0.7 92   36 28 24.1 97.69     Cloudy
22:00 1.1 0.3 94   35 26 24.1 97.71     Cloudy
23:00 0.5 -0.3 94   35 28 19.3 97.82     Cloudy

Notes on Data Quality.

Legend

  • E = Estimated
  • M = Missing
  • NA = Not Available*
  • [empty] = Indicates an unobserved value
Date modified: